Saint Bonnet de Bellac- Haute Vienne - France
Donnes mto: vendredi, 11/05/2012
Date Horaire Temp. E. Hum. E. P.atmo. Pluie Vent Direction Direction Ensoleilleme Solaire P. de rose Temp au vent Rafales
11/05/2012 00:00 19,5 C 76 % 1019,4 hPa 0,0 mm 1,1 km/h (1 Bft) E 90 0 min 0 W/m 15,2 C 19,5 C 3,6 km/h (1 Bft)
11/05/2012 00:10 19,4 C 76 % 1019,3 hPa 0,0 mm 0,7 km/h (0 Bft) E-SE 112 0 min 0 W/m 15,1 C 19,4 C 3,2 km/h (1 Bft)
11/05/2012 00:20 19,2 C 76 % 1019,3 hPa 0,0 mm 0,4 km/h (0 Bft) E-SE 112 0 min 0 W/m 14,9 C 19,2 C 0,4 km/h (0 Bft)
11/05/2012 00:30 19,1 C 77 % 1019,3 hPa 0,0 mm 2,2 km/h (1 Bft) E-SE 112 0 min 0 W/m 15,0 C 19,1 C 4,0 km/h (1 Bft)
11/05/2012 00:40 18,9 C 77 % 1019,2 hPa 0,0 mm 1,1 km/h (1 Bft) E-SE 112 0 min 0 W/m 14,8 C 18,9 C 1,4 km/h (1 Bft)
11/05/2012 00:50 18,8 C 78 % 1019,2 hPa 0,0 mm 1,8 km/h (1 Bft) E 90 0 min 0 W/m 14,9 C 18,8 C 3,2 km/h (1 Bft)
11/05/2012 01:00 18,5 C 78 % 1019,3 hPa 0,0 mm 0,0 km/h (0 Bft) SE 135 0 min 0 W/m 14,6 C 18,5 C 0,0 km/h (0 Bft)
11/05/2012 01:10 18,3 C 79 % 1019,3 hPa 0,0 mm 3,6 km/h (1 Bft) SE 135 0 min 0 W/m 14,6 C 18,3 C 5,8 km/h (2 Bft)
11/05/2012 01:20 18,3 C 79 % 1019,4 hPa 0,0 mm 2,2 km/h (1 Bft) S-SE 157 0 min 0 W/m 14,6 C 18,3 C 6,1 km/h (2 Bft)
11/05/2012 01:30 18,6 C 80 % 1019,5 hPa 0,0 mm 3,6 km/h (1 Bft) S-SE 157 0 min 0 W/m 15,1 C 18,6 C 6,5 km/h (2 Bft)
11/05/2012 01:40 19,4 C 78 % 1019,6 hPa 0,0 mm 10,1 km/h (2 Bft) S 180 0 min 0 W/m 15,5 C 19,4 C 13,3 km/h (3 Bft)
11/05/2012 01:50 20,2 C 76 % 1019,6 hPa 0,0 mm 3,6 km/h (1 Bft) S 180 0 min 0 W/m 15,8 C 20,2 C 7,6 km/h (2 Bft)
11/05/2012 02:00 20,4 C 75 % 1019,6 hPa 0,0 mm 5,0 km/h (1 Bft) S-SO 202 0 min 0 W/m 15,8 C 20,4 C 9,7 km/h (2 Bft)
11/05/2012 02:10 20,6 C 74 % 1019,6 hPa 0,0 mm 7,6 km/h (2 Bft) S-SO 202 0 min 0 W/m 15,8 C 20,6 C 11,5 km/h (2 Bft)
11/05/2012 02:20 20,5 C 73 % 1019,8 hPa 0,0 mm 2,5 km/h (1 Bft) S-SE 157 0 min 0 W/m 15,5 C 20,5 C 5,8 km/h (2 Bft)
11/05/2012 02:30 20,4 C 73 % 1019,9 hPa 0,0 mm 1,4 km/h (1 Bft) SO 225 0 min 0 W/m 15,4 C 20,4 C 4,3 km/h (1 Bft)
11/05/2012 02:40 20,3 C 73 % 1019,9 hPa 0,0 mm 0,0 km/h (0 Bft) S-SO 202 0 min 0 W/m 15,3 C 20,3 C 0,0 km/h (0 Bft)
11/05/2012 02:50 20,1 C 73 % 1019,9 hPa 0,0 mm 0,0 km/h (0 Bft) O-SO 247 0 min 0 W/m 15,1 C 20,1 C 0,0 km/h (0 Bft)
11/05/2012 03:02 19,8 C 73 % 1019,9 hPa 0,0 mm 0,0 km/h (0 Bft) O-SO 247 0 min 0 W/m 14,8 C 19,8 C 0,0 km/h (0 Bft)
11/05/2012 03:10 19,4 C 74 % 1019,9 hPa 0,0 mm 0,0 km/h (0 Bft) O-SO 247 0 min 0 W/m 14,6 C 19,4 C 0,0 km/h (0 Bft)
11/05/2012 03:20 19,1 C 74 % 1019,8 hPa 0,0 mm 0,0 km/h (0 Bft) O-SO 247 0 min 0 W/m 14,4 C 19,1 C 0,0 km/h (0 Bft)
11/05/2012 03:30 18,6 C 76 % 1019,6 hPa 0,0 mm 0,0 km/h (0 Bft) S-SO 202 0 min 0 W/m 14,3 C 18,6 C 0,0 km/h (0 Bft)
11/05/2012 03:40 18,3 C 77 % 1019,5 hPa 0,0 mm 0,0 km/h (0 Bft) S-SO 202 0 min 0 W/m 14,2 C 18,3 C 0,0 km/h (0 Bft)
11/05/2012 03:50 18,1 C 77 % 1019,5 hPa 0,0 mm 0,0 km/h (0 Bft) S-SO 202 0 min 0 W/m 14,0 C 18,1 C 0,0 km/h (0 Bft)
11/05/2012 04:00 17,8 C 77 % 1019,4 hPa 0,0 mm 0,0 km/h (0 Bft) S-SO 202 0 min 0 W/m 13,7 C 17,8 C 0,0 km/h (0 Bft)
11/05/2012 04:10 17,6 C 77 % 1019,3 hPa 0,0 mm 0,0 km/h (0 Bft) S-SO 202 0 min 0 W/m 13,5 C 17,6 C 0,0 km/h (0 Bft)
11/05/2012 04:20 17,4 C 77 % 1019,4 hPa 0,0 mm 0,0 km/h (0 Bft) S-SE 157 0 min 0 W/m 13,3 C 17,4 C 0,0 km/h (0 Bft)
11/05/2012 04:30 17,2 C 78 % 1019,3 hPa 0,0 mm 0,0 km/h (0 Bft) SE 135 0 min 0 W/m 13,3 C 17,2 C 0,0 km/h (0 Bft)
11/05/2012 04:40 17,1 C 78 % 1019,4 hPa 0,0 mm 0,0 km/h (0 Bft) SE 135 0 min 0 W/m 13,2 C 17,1 C 0,0 km/h (0 Bft)
11/05/2012 04:50 17,1 C 78 % 1019,4 hPa 0,0 mm 0,0 km/h (0 Bft) E-SE 112 0 min 0 W/m 13,2 C 17,1 C 0,0 km/h (0 Bft)
11/05/2012 05:00 17,1 C 79 % 1019,4 hPa 0,0 mm 0,0 km/h (0 Bft) E 90 0 min 0 W/m 13,4 C 17,1 C 0,0 km/h (0 Bft)
11/05/2012 05:10 16,9 C 80 % 1019,5 hPa 0,0 mm 0,0 km/h (0 Bft) E 90 0 min 0 W/m 13,4 C 16,9 C 0,0 km/h (0 Bft)
11/05/2012 05:20 16,8 C 80 % 1019,5 hPa 0,0 mm 0,0 km/h (0 Bft) N-NO 337 0 min 0 W/m 13,3 C 16,8 C 0,0 km/h (0 Bft)
11/05/2012 05:30 16,5 C 81 % 1019,5 hPa 0,0 mm 6,1 km/h (2 Bft) NO 315 0 min 0 W/m 13,2 C 16,5 C 8,6 km/h (2 Bft)
11/05/2012 05:40 16,3 C 81 % 1019,6 hPa 0,0 mm 1,1 km/h (1 Bft) NO 315 0 min 0 W/m 13,0 C 16,3 C 3,2 km/h (1 Bft)
11/05/2012 05:50 16,1 C 82 % 1019,7 hPa 0,0 mm 0,0 km/h (0 Bft) NO 315 0 min 0 W/m 13,0 C 16,1 C 0,0 km/h (0 Bft)
11/05/2012 06:00 15,8 C 81 % 1019,7 hPa 0,0 mm 0,0 km/h (0 Bft) NO 315 0 min 0 W/m 12,5 C 15,8 C 0,0 km/h (0 Bft)
11/05/2012 06:10 15,7 C 82 % 1019,8 hPa 0,0 mm 0,0 km/h (0 Bft) NO 315 0 min 0 W/m 12,6 C 15,7 C 0,0 km/h (0 Bft)
11/05/2012 06:20 15,5 C 83 % 1019,9 hPa 0,0 mm 0,0 km/h (0 Bft) NO 315 0 min 0 W/m 12,6 C 15,5 C 0,0 km/h (0 Bft)
11/05/2012 06:30 15,3 C 83 % 1020,0 hPa 0,0 mm 0,0 km/h (0 Bft) NO 315 0 min 0 W/m 12,4 C 15,3 C 0,0 km/h (0 Bft)
11/05/2012 06:40 15,2 C 84 % 1020,1 hPa 0,0 mm 0,0 km/h (0 Bft) E-NE 67 0 min 0 W/m 12,5 C 15,2 C 0,0 km/h (0 Bft)
11/05/2012 06:50 15,1 C 84 % 1020,2 hPa 0,0 mm 0,0 km/h (0 Bft) E-NE 67 0 min 0 W/m 12,4 C 15,1 C 0,0 km/h (0 Bft)
11/05/2012 07:00 15,0 C 85 % 1020,3 hPa 0,0 mm 0,0 km/h (0 Bft) E-NE 67 0 min 0 W/m 12,5 C 15,0 C 0,0 km/h (0 Bft)
11/05/2012 07:10 14,9 C 85 % 1020,5 hPa 0,0 mm 0,0 km/h (0 Bft) E-NE 67 2 min 0 W/m 12,4 C 14,9 C 0,0 km/h (0 Bft)
11/05/2012 07:20 14,8 C 85 % 1020,4 hPa 0,0 mm 0,0 km/h (0 Bft) E-NE 67 2 min 0 W/m 12,3 C 14,8 C 0,0 km/h (0 Bft)
11/05/2012 07:30 14,9 C 86 % 1020,5 hPa 0,0 mm 0,0 km/h (0 Bft) E-NE 67 2 min 0 W/m 12,6 C 14,9 C 0,0 km/h (0 Bft)
11/05/2012 07:40 15,2 C 86 % 1020,7 hPa 0,0 mm 0,0 km/h (0 Bft) E-NE 67 2 min 0 W/m 12,9 C 15,2 C 0,0 km/h (0 Bft)
11/05/2012 07:50 15,4 C 87 % 1020,7 hPa 0,0 mm 0,0 km/h (0 Bft) E-NE 67 2 min 0 W/m 13,2 C 15,4 C 0,0 km/h (0 Bft)
11/05/2012 08:00 15,9 C 87 % 1021,0 hPa 0,0 mm 0,0 km/h (0 Bft) E-NE 67 2 min 0 W/m 13,7 C 15,9 C 0,0 km/h (0 Bft)
11/05/2012 08:10 16,5 C 87 % 1021,1 hPa 0,0 mm 0,0 km/h (0 Bft) E-NE 67 2 min 0 W/m 14,3 C 16,5 C 0,0 km/h (0 Bft)
11/05/2012 08:20 17,1 C 87 % 1021,0 hPa 0,0 mm 0,0 km/h (0 Bft) E-NE 67 2 min 0 W/m 14,9 C 17,1 C 0,0 km/h (0 Bft)
11/05/2012 08:30 17,6 C 86 % 1021,2 hPa 0,0 mm 0,0 km/h (0 Bft) E-NE 67 2 min 0 W/m 15,2 C 17,6 C 0,0 km/h (0 Bft)
11/05/2012 08:40 18,0 C 85 % 1021,4 hPa 0,0 mm 0,0 km/h (0 Bft) E-NE 67 2 min 0 W/m 15,4 C 18,0 C 0,0 km/h (0 Bft)
11/05/2012 08:50 18,6 C 85 % 1021,4 hPa 0,0 mm 0,0 km/h (0 Bft) E-NE 67 2 min 0 W/m 16,0 C 18,6 C 0,0 km/h (0 Bft)
11/05/2012 09:00 19,3 C 84 % 1021,2 hPa 0,0 mm 0,0 km/h (0 Bft) E-NE 67 2 min 0 W/m 16,5 C 19,3 C 0,0 km/h (0 Bft)
11/05/2012 09:10 20,1 C 82 % 1021,4 hPa 0,0 mm 0,0 km/h (0 Bft) E-NE 67 2 min 0 W/m 16,9 C 20,1 C 0,0 km/h (0 Bft)
11/05/2012 09:20 20,5 C 81 % 1021,5 hPa 0,0 mm 0,0 km/h (0 Bft) E 90 2 min 0 W/m 17,1 C 20,5 C 0,0 km/h (0 Bft)
11/05/2012 09:30 20,9 C 78 % 1021,5 hPa 0,0 mm 0,0 km/h (0 Bft) E-SE 112 2 min 0 W/m 16,9 C 20,9 C 0,0 km/h (0 Bft)
11/05/2012 09:40 21,4 C 76 % 1021,4 hPa 0,0 mm 0,0 km/h (0 Bft) E-SE 112 2 min 0 W/m 17,0 C 21,4 C 0,0 km/h (0 Bft)
11/05/2012 09:50 21,9 C 74 % 1021,3 hPa 0,0 mm 0,0 km/h (0 Bft) E-SE 112 2 min 0 W/m 17,0 C 21,9 C 0,0 km/h (0 Bft)
11/05/2012 10:00 22,4 C 71 % 1021,5 hPa 0,0 mm 0,0 km/h (0 Bft) N 360 2 min 0 W/m 16,9 C 22,4 C 0,0 km/h (0 Bft)
11/05/2012 10:10 22,9 C 70 % 1021,6 hPa 0,0 mm 0,7 km/h (0 Bft) E 90 2 min 0 W/m 17,1 C 22,9 C 0,7 km/h (0 Bft)
11/05/2012 10:20 23,4 C 68 % 1021,4 hPa 0,0 mm 0,0 km/h (0 Bft) E-NE 67 2 min 0 W/m 17,1 C 23,4 C 0,0 km/h (0 Bft)
11/05/2012 10:30 24,1 C 66 % 1021,5 hPa 0,0 mm 1,1 km/h (1 Bft) N-NE 22 2 min 0 W/m 17,3 C 24,1 C 4,0 km/h (1 Bft)
11/05/2012 10:40 24,6 C 65 % 1021,6 hPa 0,0 mm 0,0 km/h (0 Bft) N-NE 22 2 min 0 W/m 17,6 C 24,6 C 0,0 km/h (0 Bft)
11/05/2012 10:50 25,2 C 62 % 1021,5 hPa 0,0 mm 0,0 km/h (0 Bft) N-NE 22 2 min 0 W/m 17,4 C 25,2 C 3,2 km/h (1 Bft)
11/05/2012 11:00 25,8 C 62 % 1021,4 hPa 0,0 mm 0,4 km/h (0 Bft) N-NE 22 2 min 0 W/m 18,0 C 25,8 C 4,0 km/h (1 Bft)
11/05/2012 11:10 26,2 C 60 % 1021,5 hPa 0,0 mm 0,4 km/h (0 Bft) E-NE 67 2 min 0 W/m 17,8 C 26,2 C 3,6 km/h (1 Bft)
11/05/2012 11:20 26,5 C 55 % 1021,5 hPa 0,0 mm 1,8 km/h (1 Bft) S-SO 202 2 min 0 W/m 16,7 C 26,5 C 6,1 km/h (2 Bft)
11/05/2012 11:30 26,3 C 55 % 1021,7 hPa 0,0 mm 2,9 km/h (1 Bft) S-SO 202 2 min 0 W/m 16,5 C 26,3 C 6,1 km/h (2 Bft)
11/05/2012 11:40 26,4 C 55 % 1021,7 hPa 0,0 mm 3,2 km/h (1 Bft) S 180 2 min 0 W/m 16,6 C 26,4 C 6,1 km/h (2 Bft)
11/05/2012 11:50 26,6 C 55 % 1021,8 hPa 0,0 mm 5,4 km/h (2 Bft) S 180 2 min 0 W/m 16,8 C 26,6 C 5,4 km/h (2 Bft)
11/05/2012 12:00 26,6 C 55 % 1021,6 hPa 0,0 mm 0,0 km/h (0 Bft) S-SE 157 2 min 0 W/m 16,8 C 26,6 C 3,2 km/h (1 Bft)
11/05/2012 12:10 26,6 C 57 % 1021,7 hPa 0,0 mm 3,2 km/h (1 Bft) O-NO 292 2 min 0 W/m 17,4 C 26,6 C 4,0 km/h (1 Bft)
11/05/2012 12:20 26,8 C 55 % 1021,6 hPa 0,0 mm 3,2 km/h (1 Bft) N-NO 337 2 min 0 W/m 17,0 C 26,8 C 9,0 km/h (2 Bft)
11/05/2012 12:30 27,1 C 56 % 1021,7 hPa 0,0 mm 2,9 km/h (1 Bft) O-NO 292 2 min 0 W/m 17,5 C 27,1 C 8,6 km/h (2 Bft)
11/05/2012 12:40 27,4 C 55 % 1021,7 hPa 0,0 mm 0,0 km/h (0 Bft) N-NO 337 2 min 0 W/m 17,5 C 27,4 C 0,0 km/h (0 Bft)
11/05/2012 12:50 27,6 C 54 % 1021,5 hPa 0,0 mm 0,0 km/h (0 Bft) O-NO 292 2 min 0 W/m 17,4 C 27,6 C 0,0 km/h (0 Bft)
11/05/2012 13:00 27,6 C 54 % 1021,7 hPa 0,0 mm 3,6 km/h (1 Bft) NO 315 2 min 0 W/m 17,4 C 27,6 C 7,2 km/h (2 Bft)
11/05/2012 13:10 27,4 C 55 % 1021,8 hPa 0,0 mm 3,6 km/h (1 Bft) N 360 2 min 0 W/m 17,5 C 27,4 C 3,6 km/h (1 Bft)
11/05/2012 13:20 27,4 C 55 % 1021,8 hPa 0,0 mm 2,2 km/h (1 Bft) SO 225 2 min 0 W/m 17,5 C 27,4 C 4,0 km/h (1 Bft)
11/05/2012 13:30 27,3 C 56 % 1021,8 hPa 0,0 mm 0,7 km/h (0 Bft) O-NO 292 2 min 0 W/m 17,7 C 27,3 C 4,3 km/h (1 Bft)
11/05/2012 13:40 27,3 C 55 % 1021,8 hPa 0,0 mm 0,0 km/h (0 Bft) O-SO 247 2 min 0 W/m 17,4 C 27,3 C 1,4 km/h (1 Bft)
11/05/2012 13:50 27,4 C 54 % 1021,7 hPa 0,0 mm 4,0 km/h (1 Bft) O-SO 247 2 min 0 W/m 17,3 C 27,4 C 9,7 km/h (2 Bft)
11/05/2012 14:00 27,5 C 55 % 1021,8 hPa 0,0 mm 4,7 km/h (1 Bft) SO 225 2 min 0 W/m 17,6 C 27,5 C 11,5 km/h (2 Bft)
11/05/2012 14:10 27,6 C 56 % 1021,8 hPa 0,0 mm 1,1 km/h (1 Bft) O-SO 247 2 min 0 W/m 18,0 C 27,6 C 3,6 km/h (1 Bft)
11/05/2012 14:20 27,8 C 55 % 1021,9 hPa 0,0 mm 3,6 km/h (1 Bft) O-SO 247 2 min 0 W/m 17,9 C 27,8 C 6,8 km/h (2 Bft)
11/05/2012 14:30 27,8 C 58 % 1021,9 hPa 0,0 mm 3,6 km/h (1 Bft) O-NO 292 2 min 0 W/m 18,8 C 27,8 C 8,3 km/h (2 Bft)
11/05/2012 14:40 27,6 C 56 % 1021,9 hPa 0,0 mm 2,5 km/h (1 Bft) O 270 2 min 0 W/m 18,0 C 27,6 C 2,5 km/h (1 Bft)
11/05/2012 14:50 27,8 C 58 % 1022,0 hPa 0,0 mm 0,0 km/h (0 Bft) O-NO 292 2 min 0 W/m 18,8 C 27,8 C 0,0 km/h (0 Bft)
11/05/2012 15:00 28,1 C 56 % 1021,9 hPa 0,0 mm 0,7 km/h (0 Bft) O 270 2 min 0 W/m 18,5 C 28,1 C 4,0 km/h (1 Bft)
11/05/2012 15:10 27,8 C 57 % 1022,1 hPa 0,0 mm 4,3 km/h (1 Bft) O 270 2 min 0 W/m 18,5 C 27,8 C 12,6 km/h (3 Bft)
11/05/2012 15:20 27,7 C 56 % 1022,1 hPa 0,0 mm 0,7 km/h (0 Bft) SO 225 2 min 0 W/m 18,1 C 27,7 C 3,6 km/h (1 Bft)
11/05/2012 15:30 27,8 C 57 % 1022,1 hPa 0,0 mm 4,3 km/h (1 Bft) NO 315 2 min 0 W/m 18,5 C 27,8 C 7,6 km/h (2 Bft)
11/05/2012 15:40 27,8 C 58 % 1022,2 hPa 0,0 mm 5,4 km/h (2 Bft) NO 315 2 min 0 W/m 18,8 C 27,8 C 7,9 km/h (2 Bft)
11/05/2012 15:50 27,8 C 57 % 1022,2 hPa 0,0 mm 4,3 km/h (1 Bft) O 270 2 min 0 W/m 18,5 C 27,8 C 9,4 km/h (2 Bft)
11/05/2012 16:00 27,8 C 57 % 1022,3 hPa 0,0 mm 6,8 km/h (2 Bft) NO 315 2 min 0 W/m 18,5 C 27,8 C 11,2 km/h (2 Bft)
11/05/2012 16:10 27,8 C 56 % 1022,4 hPa 0,0 mm 1,4 km/h (1 Bft) O 270 2 min 0 W/m 18,2 C 27,8 C 1,4 km/h (1 Bft)
11/05/2012 16:20 28,0 C 58 % 1022,3 hPa 0,0 mm 5,4 km/h (2 Bft) O-NO 292 2 min 0 W/m 18,9 C 28,0 C 6,5 km/h (2 Bft)
11/05/2012 16:30 28,2 C 57 % 1022,3 hPa 0,0 mm 5,8 km/h (2 Bft) NO 315 2 min 0 W/m 18,9 C 28,2 C 10,4 km/h (2 Bft)
11/05/2012 16:40 28,3 C 56 % 1022,3 hPa 0,0 mm 4,7 km/h (1 Bft) NO 315 2 min 0 W/m 18,7 C 28,3 C 6,5 km/h (2 Bft)
11/05/2012 16:50 28,1 C 56 % 1022,3 hPa 0,0 mm 3,6 km/h (1 Bft) NO 315 2 min 0 W/m 18,5 C 28,1 C 6,5 km/h (2 Bft)
11/05/2012 17:00 27,9 C 56 % 1022,3 hPa 0,0 mm 1,1 km/h (1 Bft) O-NO 292 2 min 0 W/m 18,3 C 27,9 C 6,5 km/h (2 Bft)
11/05/2012 17:10 27,7 C 56 % 1022,2 hPa 0,0 mm 0,7 km/h (0 Bft) O 270 2 min 0 W/m 18,1 C 27,7 C 3,2 km/h (1 Bft)
11/05/2012 17:20 27,6 C 58 % 1022,2 hPa 0,0 mm 1,4 km/h (1 Bft) NO 315 2 min 0 W/m 18,6 C 27,6 C 7,6 km/h (2 Bft)
11/05/2012 17:30 27,3 C 58 % 1022,3 hPa 0,0 mm 3,6 km/h (1 Bft) NO 315 2 min 0 W/m 18,3 C 27,3 C 7,2 km/h (2 Bft)
11/05/2012 17:40 27,1 C 59 % 1022,3 hPa 0,0 mm 3,6 km/h (1 Bft) N-NO 337 2 min 0 W/m 18,4 C 27,1 C 3,6 km/h (1 Bft)
11/05/2012 17:50 26,8 C 60 % 1022,5 hPa 0,0 mm 1,1 km/h (1 Bft) N-NO 337 2 min 0 W/m 18,4 C 26,8 C 3,6 km/h (1 Bft)
11/05/2012 18:00 26,4 C 60 % 1022,5 hPa 0,0 mm 4,3 km/h (1 Bft) N 360 2 min 0 W/m 18,0 C 26,4 C 6,8 km/h (2 Bft)
11/05/2012 18:10 26,1 C 60 % 1022,7 hPa 0,0 mm 6,5 km/h (2 Bft) N 360 2 min 0 W/m 17,7 C 26,1 C 10,4 km/h (2 Bft)
11/05/2012 18:20 25,8 C 61 % 1022,9 hPa 0,0 mm 2,2 km/h (1 Bft) NO 315 2 min 0 W/m 17,7 C 25,8 C 3,6 km/h (1 Bft)
11/05/2012 18:30 25,3 C 62 % 1022,9 hPa 0,0 mm 5,8 km/h (2 Bft) NO 315 2 min 0 W/m 17,5 C 25,3 C 5,8 km/h (2 Bft)
11/05/2012 18:40 24,8 C 63 % 1023,0 hPa 0,0 mm 0,4 km/h (0 Bft) N-NE 22 2 min 0 W/m 17,3 C 24,8 C 3,6 km/h (1 Bft)
11/05/2012 18:50 24,5 C 63 % 1023,0 hPa 0,0 mm 4,3 km/h (1 Bft) N-NO 337 2 min 0 W/m 17,0 C 24,5 C 7,9 km/h (2 Bft)
11/05/2012 19:00 24,2 C 64 % 1022,8 hPa 0,0 mm 4,7 km/h (1 Bft) N 360 2 min 0 W/m 16,9 C 24,2 C 10,8 km/h (2 Bft)
11/05/2012 19:10 23,7 C 65 % 1022,6 hPa 0,0 mm 2,2 km/h (1 Bft) NE 45 2 min 0 W/m 16,7 C 23,7 C 6,8 km/h (2 Bft)
11/05/2012 19:20 23,3 C 66 % 1022,7 hPa 0,0 mm 0,7 km/h (0 Bft) N-NE 22 2 min 0 W/m 16,6 C 23,3 C 2,9 km/h (1 Bft)
11/05/2012 19:30 23,1 C 66 % 1023,0 hPa 0,0 mm 0,0 km/h (0 Bft) N 360 2 min 0 W/m 16,4 C 23,1 C 1,8 km/h (1 Bft)
11/05/2012 19:40 23,1 C 67 % 1023,3 hPa 0,0 mm 5,4 km/h (2 Bft) N-NO 337 2 min 0 W/m 16,6 C 23,1 C 10,1 km/h (2 Bft)
11/05/2012 19:50 22,9 C 68 % 1023,1 hPa 0,0 mm 2,5 km/h (1 Bft) N-NE 22 2 min 0 W/m 16,7 C 22,9 C 9,0 km/h (2 Bft)
11/05/2012 20:00 22,7 C 68 % 1022,9 hPa 0,0 mm 5,8 km/h (2 Bft) NE 45 2 min 0 W/m 16,5 C 22,7 C 10,1 km/h (2 Bft)
11/05/2012 20:10 22,3 C 69 % 1022,8 hPa 0,0 mm 4,3 km/h (1 Bft) N 360 2 min 0 W/m 16,3 C 22,3 C 12,2 km/h (2 Bft)
11/05/2012 20:20 21,9 C 70 % 1022,9 hPa 0,0 mm 4,7 km/h (1 Bft) N 360 0 min 0 W/m 16,2 C 21,9 C 7,9 km/h (2 Bft)
11/05/2012 20:30 21,5 C 71 % 1023,4 hPa 0,0 mm 7,2 km/h (2 Bft) N-NE 22 0 min 0 W/m 16,0 C 21,5 C 7,2 km/h (2 Bft)
11/05/2012 20:40 21,1 C 73 % 1023,4 hPa 0,0 mm 7,2 km/h (2 Bft) N 360 0 min 0 W/m 16,1 C 21,1 C 7,2 km/h (2 Bft)
11/05/2012 20:50 20,6 C 74 % 1023,6 hPa 0,0 mm 5,0 km/h (1 Bft) N-NE 22 0 min 0 W/m 15,8 C 20,6 C 8,6 km/h (2 Bft)
11/05/2012 21:00 20,3 C 74 % 1023,9 hPa 0,0 mm 8,6 km/h (2 Bft) NE 45 0 min 0 W/m 15,5 C 20,3 C 8,6 km/h (2 Bft)
11/05/2012 21:10 19,9 C 75 % 1024,0 hPa 0,0 mm 7,9 km/h (2 Bft) N 360 0 min 0 W/m 15,3 C 19,9 C 7,9 km/h (2 Bft)
11/05/2012 21:20 19,5 C 75 % 1024,2 hPa 0,0 mm 5,4 km/h (2 Bft) N-NE 22 0 min 0 W/m 14,9 C 19,5 C 5,4 km/h (2 Bft)
11/05/2012 21:30 19,2 C 76 % 1024,3 hPa 0,0 mm 4,7 km/h (1 Bft) NE 45 0 min 0 W/m 14,9 C 19,2 C 9,4 km/h (2 Bft)
11/05/2012 21:40 18,9 C 77 % 1024,7 hPa 0,0 mm 2,9 km/h (1 Bft) N-NE 22 0 min 0 W/m 14,8 C 18,9 C 7,9 km/h (2 Bft)
11/05/2012 21:50 18,6 C 77 % 1025,0 hPa 0,0 mm 1,4 km/h (1 Bft) N 360 0 min 0 W/m 14,5 C 18,6 C 6,1 km/h (2 Bft)
11/05/2012 22:00 18,3 C 77 % 1025,0 hPa 0,0 mm 14,4 km/h (3 Bft) O-NO 292 0 min 0 W/m 14,2 C 18,3 C 19,1 km/h (3 Bft)
11/05/2012 22:10 18,1 C 76 % 1025,2 hPa 0,0 mm 3,2 km/h (1 Bft) N-NE 22 0 min 0 W/m 13,8 C 18,1 C 7,9 km/h (2 Bft)
11/05/2012 22:20 17,8 C 77 % 1025,2 hPa 0,0 mm 5,0 km/h (1 Bft) N-NE 22 0 min 0 W/m 13,7 C 17,8 C 12,6 km/h (3 Bft)
11/05/2012 22:30 17,5 C 77 % 1025,3 hPa 0,0 mm 3,2 km/h (1 Bft) N-NE 22 0 min 0 W/m 13,4 C 17,5 C 4,3 km/h (1 Bft)
11/05/2012 22:40 17,4 C 77 % 1025,3 hPa 0,0 mm 0,7 km/h (0 Bft) E-NE 67 0 min 0 W/m 13,3 C 17,4 C 3,6 km/h (1 Bft)
11/05/2012 22:50 17,2 C 77 % 1025,4 hPa 0,0 mm 7,2 km/h (2 Bft) N-NE 22 0 min 0 W/m 13,1 C 17,2 C 11,2 km/h (2 Bft)
11/05/2012 23:00 17,1 C 78 % 1025,6 hPa 0,0 mm 2,2 km/h (1 Bft) N-NE 22 0 min 0 W/m 13,2 C 17,1 C 6,8 km/h (2 Bft)
11/05/2012 23:10 17,1 C 78 % 1025,6 hPa 0,0 mm 3,2 km/h (1 Bft) N 360 0 min 0 W/m 13,2 C 17,1 C 4,3 km/h (1 Bft)
11/05/2012 23:20 16,9 C 78 % 1025,6 hPa 0,0 mm 5,4 km/h (2 Bft) N-NE 22 0 min 0 W/m 13,0 C 16,9 C 10,4 km/h (2 Bft)
11/05/2012 23:30 16,9 C 78 % 1025,7 hPa 0,0 mm 0,4 km/h (0 Bft) N-NE 22 0 min 0 W/m 13,0 C 16,9 C 3,6 km/h (1 Bft)
11/05/2012 23:40 16,8 C 78 % 1025,8 hPa 0,0 mm 7,9 km/h (2 Bft) N-NE 22 0 min 0 W/m 12,9 C 16,8 C 7,9 km/h (2 Bft)
11/05/2012 23:50 16,8 C 78 % 1025,9 hPa 0,0 mm 4,3 km/h (1 Bft) N-NE 22 0 min 0 W/m 12,9 C 16,8 C 4,3 km/h (1 Bft)
_ Min-Heure 07:20 13:50 00:50 - 19:30 - - - - 07:20 07:20 14:50
Minimum _ 14,8 C 54 % 1019,2 hPa - 0,0 km/h (0 Bft) - - - - 12,3 C 14,8 C 0,0 km/h (0 Bft)
_ Max-Heure 16:40 08:20 23:50 23:50 22:00 - - 20:10 23:50 16:20 16:40 22:00
Maximum _ 28,3 C 87 % 1025,9 hPa 0,0 mm 14,4 km/h
O-NO (3 Bft)
- - 2 min 0 W/m 18,9 C 28,3 C 19,1 km/h
O-NO (3 Bft)
Moyenne _ 21,7 C 70 % 1021,7 hPa #0,0 mm 2,3 km/h (1 Bft) N-NE - #2:38 h 0 W/m 15,8 C 21,7 C 4,3 km/h (1 Bft)
Saint Bonnet de Bellac- Haute Vienne - France